TimePST,TemperatureF,Dew PointF,Humidity,Sea Level PressureIn,VisibilityMPH,Wind Direction,Wind SpeedMPH,Gust SpeedMPH,PrecipitationIn,Events,Conditions,WindDirDegrees,DateUTC
12:53 AM,37.9,32.0,79,30.11,10.0,ENE,3.5,-,N/A,,Clear,70,2013-02-10 08:53:00
1:53 AM,34.0,30.0,85,30.12,10.0,Calm,Calm,-,N/A,,Clear,0,2013-02-10 09:53:00
2:53 AM,34.0,30.9,89,30.12,9.0,Calm,Calm,-,N/A,,Clear,0,2013-02-10 10:53:00
3:53 AM,32.0,30.0,92,30.12,10.0,Calm,Calm,-,N/A,,Clear,0,2013-02-10 11:53:00
5:53 AM,33.1,30.0,89,30.13,9.0,Calm,Calm,-,N/A,,Clear,0,2013-02-10 13:53:00
6:53 AM,32.0,28.9,88,30.14,10.0,Calm,Calm,-,N/A,,Clear,0,2013-02-10 14:53:00
7:53 AM,32.0,30.0,92,30.15,7.0,Calm,Calm,-,N/A,,Clear,0,2013-02-10 15:53:00
8:53 AM,42.1,35.1,76,30.16,10.0,North,3.5,-,N/A,,Clear,350,2013-02-10 16:53:00
9:53 AM,48.0,35.1,61,30.16,10.0,Calm,Calm,-,N/A,,Clear,0,2013-02-10 17:53:00
10:53 AM,50.0,34.0,54,30.13,10.0,NNW,6.9,-,N/A,,Clear,340,2013-02-10 18:53:00
11:53 AM,54.0,36.0,51,30.11,10.0,NW,10.4,-,N/A,,Clear,320,2013-02-10 19:53:00
12:53 PM,55.9,35.1,45,30.07,10.0,NNW,12.7,-,N/A,,Clear,330,2013-02-10 20:53:00
1:53 PM,60.1,36.0,41,30.04,10.0,NNW,13.8,21.9,N/A,,Clear,340,2013-02-10 21:53:00
2:53 PM,63.0,37.0,38,30.03,10.0,NNW,13.8,-,N/A,,Clear,330,2013-02-10 22:53:00
3:53 PM,63.0,33.1,33,30.02,10.0,NW,12.7,-,N/A,,Clear,320,2013-02-10 23:53:00
4:53 PM,61.0,32.0,34,30.02,10.0,NW,8.1,-,N/A,,Clear,310,2013-02-11 00:53:00
5:53 PM,53.1,32.0,45,30.03,10.0,NW,4.6,-,N/A,,Clear,310,2013-02-11 01:53:00
6:53 PM,53.1,34.0,48,30.05,10.0,NE,5.8,-,N/A,,Clear,40,2013-02-11 02:53:00
7:53 PM,44.1,34.0,68,30.06,10.0,WSW,5.8,-,N/A,,Unknown,250,2013-02-11 03:53:00
8:53 PM,50.0,28.0,43,30.07,10.0,North,8.1,-,N/A,,Clear,360,2013-02-11 04:53:00
9:53 PM,53.1,21.0,29,30.08,10.0,North,8.1,-,N/A,,Clear,350,2013-02-11 05:53:00
10:53 PM,54.0,19.0,25,30.08,10.0,NNE,11.5,-,N/A,,Clear,20,2013-02-11 06:53:00
11:53 PM,52.0,19.9,28,30.10,10.0,ENE,6.9,-,N/A,,Clear,60,2013-02-11 07:53:00